Regional Weather Roundup
Issued by NWS

Home | Current Version | Previous Version | Text Only | Print | Product List | Glossary On
Versions: 1 2 3 4 5 6 7 8 9 10 11 12 13 14 15 16 17 18 19 20 21 22 23 24 25 26 27 28 29 30 31 32 33 34 35 36 37 38 39 40 41 42 43 44 45 46 47 48 49 50
455
ASUS43 KIND 290409
RWRIN

WEATHER ROUNDUP FOR INDIANA
NATIONAL WEATHER SERVICE INDIANAPOLIS IN
1200 AM EDT THU JUN 29 2017

NOTE: "FAIR" INDICATES FEW OR NO CLOUDS BELOW 12,000 FEET WITH NO
SIGNIFICANT WEATHER AND/OR OBSTRUCTIONS TO VISIBILITY.

* - STATION DOES NOT REPORT WEATHER SUCH AS PRECIPITATION OR FOG.

+ - STATION NOT QUALITY CONTROLLED BY THE NATIONAL WEATHER SERVICE.
    USE DATA WITH CAUTION...ESPECIALLY DEWPOINT AND RELATIVE
    HUMIDITY OBSERVATIONS.

INZ001>003-010>013-019-020-290500-
NORTHWEST INDIANA

CITY           SKY/WX    TMP DP  RH WIND       PRES   REMARKS
GARY /AIRPORT/ LGT RAIN  74  63  66 S9G18     29.83F
KNOX *+        CLOUDY    72  46  40 S16       29.89R
LA PORTE +     MOCLDY    74  59  59 SW15G21   29.90R
MICHIGAN CITY+ LGT RAIN  73  59  60 S9G21     29.88R
MONTICELLO +   CLOUDY    73  58  59 S12G21    29.91R
RENSSELAER +   CLOUDY    73  55  53 S10G16    29.89S
VALPARAISO     MOCLDY    76  61  59 SW15      29.89R

$$

LMZ046-743>745-290500-
SOUTHERN LAKE MICHIGAN

STATION/POSITION TIME  TEMP    WIND        PRES    WAVE
                       AIR SEA DIR/SP/G            HT
                 (UTC) (F)     (DEG/KT/KT) (MB)    (FT)
BURNS HARBOR     0340   76     200/ 19/ 27 1011.2R
MICHIGAN CITY    0340   76     180/ 18/ 23   N/A
5NW MICH CITY    0400   73 65  200/ 17/ 25   N/A     3

$$

INZ004-005-014>016-021>024-290500-
NORTH CENTRAL INDIANA

CITY           SKY/WX    TMP DP  RH WIND       PRES   REMARKS
GOSHEN         MOCLDY    74  53  48 S17G25    29.90R
LOGANSPORT +   CLOUDY    70  55  60 S15G23    29.92S
PERU/GRISSOM   CLOUDY    71  57  61 S15       29.93S
ROCHESTER +    CLOUDY    73  55  53 S12G20    29.93R
SOUTH BEND     MOCLDY    74  58  57 S20G26    29.90R
WARSAW +       MOCLDY    72  54  53 S8        29.92R

$$

INZ006>009-017-018-025>027-290500-
NORTHEAST INDIANA

CITY           SKY/WX    TMP DP  RH WIND       PRES   REMARKS
ANGOLA *+      PTCLDY    72  64  78 S16       29.91S
AUBURN +       CLOUDY    72  50  46 S7        29.93F
FORT WAYNE     MOCLDY    70  53  54 S14       29.94F
HUNTINGTON +   CLOUDY    70  53  54 S9        29.93F
KENDALLVILLE + CLOUDY    72  53  50 S15G23    29.92S

$$

INZ028-029-035-036-043>045-051>053-290500-
WEST CENTRAL INDIANA

CITY           SKY/WX    TMP DP  RH WIND       PRES   REMARKS
CRAWFORDSVL +  CLOUDY    68  59  73 S10G16    29.94F
GREENCASTLE +  CLOUDY    68  59  73 S5        29.98S
LAFAYETTE      CLOUDY    71  59  65 S8        29.92R
TERRE HAUTE    CLOUDY    73  59  61 S9        29.95S

$$

INZ030>032-037>040-046>048-054>057-064-065-290500-
CENTRAL INDIANA

CITY           SKY/WX    TMP DP  RH WIND       PRES   REMARKS
CP ATTERBURY + CLEAR     66  55  68 CALM      30.01S
FRANKFORT +    CLOUDY    73  60  64 S6        29.96S
GREENWOOD *+   CLEAR     70  54  57 S9        30.00S
INDIANAPOLIS   PTCLDY    70  57  63 S14       29.97S
-EAGLE CREEK   CLEAR     71  56  58 S9        29.97S
KOKOMO +       CLOUDY    72  57  59 S16G22    29.95F
MARION +       PTCLDY    70  54  56 S13       29.95F
MT COMFORT *+  CLEAR     70  55  60 S9        29.99F
SHELBYVILLE    CLEAR     71  54  54 S10       29.99S
ZIONSVILLE +   CLEAR     70  56  61 S13       29.97S

$$

INZ033-034-041-042-049-050-058-059-290500-
EAST CENTRAL INDIANA

CITY           SKY/WX    TMP DP  RH WIND       PRES   REMARKS
MUNCIE         CLEAR     72  56  57 S12       29.97F
RICHMOND +     CLOUDY    61  55  82 S8        30.04S

$$

INZ060-061-067>069-081>083-085>088-290500-
SOUTHWEST INDIANA

CITY           SKY/WX    TMP DP  RH WIND       PRES   REMARKS
EVANSVILLE     CLEAR     75  62  64 MISG      29.99R
HUNTINGBURG *+ CLEAR     72  61  68 S6        30.01R
WASHINGTON +   PTCLDY    67  59  76 S7        29.98S

$$

INZ062-063-066-070>080-084-089>092-290500-
SOUTH CENTRAL AND SOUTHEAST INDIANA

CITY           SKY/WX    TMP DP  RH WIND       PRES   REMARKS
BEDFORD +      CLEAR     68  55  64 S5        30.00S
BLOOMINGTON    CLEAR     70  57  63 S5        29.99S
MADISON *+     PTCLDY    68  55  64 S3        30.05S
NORTH VERNON + CLOUDY    68  54  60 S5        30.03R
SEYMOUR +      CLOUDY    68  57  68 S5        30.01R

$$





USA.gov is the U.S. government's official web portal to all federal, state and local government web resources and services.